TimeCDT,TemperatureF,Dew PointF,Humidity,Sea Level PressureIn,VisibilityMPH,Wind Direction,Wind SpeedMPH,Gust SpeedMPH,PrecipitationIn,Events,Conditions,WindDirDegrees,DateUTC
12:53 AM,55.0,48.9,80,29.83,10.0,North,13.8,-,N/A,,Clear,360,2013-10-21 05:53:00
1:53 AM,55.9,46.9,72,29.85,10.0,NNE,13.8,-,N/A,,Clear,20,2013-10-21 06:53:00
2:53 AM,55.0,42.1,62,29.87,10.0,North,16.1,-,N/A,,Clear,10,2013-10-21 07:53:00
3:53 AM,54.0,39.0,57,29.88,10.0,NNE,17.3,-,N/A,,Clear,20,2013-10-21 08:53:00
4:53 AM,53.1,39.0,59,29.90,10.0,NNE,16.1,-,N/A,,Clear,20,2013-10-21 09:53:00
5:53 AM,53.1,39.0,59,29.92,10.0,NNE,16.1,-,N/A,,Clear,20,2013-10-21 10:53:00
6:53 AM,53.1,39.0,59,29.96,10.0,NNE,15.0,-,N/A,,Clear,20,2013-10-21 11:53:00
7:53 AM,52.0,39.0,61,30.01,10.0,North,12.7,-,N/A,,Clear,10,2013-10-21 12:53:00
8:53 AM,53.1,39.0,59,30.05,10.0,North,17.3,-,N/A,,Overcast,10,2013-10-21 13:53:00
9:53 AM,55.9,37.9,51,30.09,10.0,NNE,19.6,24.2,N/A,,Clear,20,2013-10-21 14:53:00
10:53 AM,59.0,37.0,44,30.11,10.0,NNE,17.3,25.3,N/A,,Clear,20,2013-10-21 15:53:00
11:53 AM,61.0,37.0,41,30.11,10.0,NNE,17.3,24.2,N/A,,Clear,30,2013-10-21 16:53:00
12:53 PM,62.1,37.0,39,30.11,10.0,NNE,16.1,21.9,N/A,,Clear,20,2013-10-21 17:53:00
1:53 PM,63.0,36.0,37,30.09,10.0,NE,12.7,25.3,N/A,,Clear,40,2013-10-21 18:53:00
2:53 PM,66.0,35.1,32,30.08,10.0,NE,13.8,20.7,N/A,,Clear,50,2013-10-21 19:53:00
3:53 PM,66.0,34.0,30,30.08,10.0,NNE,15.0,21.9,N/A,,Clear,20,2013-10-21 20:53:00
4:53 PM,66.0,34.0,30,30.09,10.0,NE,8.1,18.4,N/A,,Clear,50,2013-10-21 21:53:00
5:53 PM,64.9,33.1,31,30.09,10.0,NE,6.9,-,N/A,,Clear,50,2013-10-21 22:53:00
6:53 PM,62.1,33.1,34,30.10,10.0,ENE,4.6,-,N/A,,Clear,60,2013-10-21 23:53:00
7:53 PM,59.0,32.0,36,30.12,10.0,ENE,3.5,-,N/A,,Clear,70,2013-10-22 00:53:00
8:53 PM,54.0,33.1,45,30.14,10.0,East,3.5,-,N/A,,Clear,90,2013-10-22 01:53:00
9:53 PM,52.0,32.0,47,30.16,10.0,ESE,4.6,-,N/A,,Clear,120,2013-10-22 02:53:00
10:53 PM,46.9,32.0,56,30.16,10.0,South,6.9,-,N/A,,Clear,170,2013-10-22 03:53:00
11:53 PM,46.9,33.1,59,30.16,10.0,SSW,5.8,-,N/A,,Clear,210,2013-10-22 04:53:00